Middleton, WI

2:51 PM CDT on June 22, 2017 (GMT -0500)
Middleton

Weather History for KC29 - May, 2013

Change the Weather History Date:

Monday, May 13, 2013

  Actual Average (KMSN) Record (KMSN)
Temperature  
Mean Temperature 48 °F -  
Max Temperature 65 °F 66 °F 88 °F (1977)
Min Temperature 30 °F 41 °F 29 °F (1966)
Degree Days  
Heating Degree Days 18    
Moisture  
Dew Point 28 °F    
Average Humidity 48    
Maximum Humidity 96    
Minimum Humidity 19    
Precipitation  
Precipitation 0.00 in - - ()
Sea Level Pressure  
Sea Level Pressure 30.08 in    
Wind  
Wind Speed 2 mph (SW)    
Max Wind Speed 13 mph    
Max Gust Speed 16 mph    
Visibility 10 miles    
Events      
Averages and records for this station are not official NWS values.
T = Trace of Precipitation, MM = Missing Value Source: NWS Daily Summary

Daily Weather History Graph

Daily Weather History Graph

Search for Another Location

Airport or City:

Trip Planner

Search our weather history database for the weather conditions in past years. The results will help you decide how hot, cold, wet, or windy it might be!

Date:

Astronomy

May. 13, 2013 Rise Set
Actual Time 5:36 AM CDT 8:13 PM CDT
Civil Twilight 5:03 AM CDT 8:45 PM CDT
Nautical Twilight 4:23 AM CDT 9:26 PM CDT
Astronomical Twilight 3:37 AM CDT 10:13 PM CDT
Moon 8:21 AM CDT (5/13) 11:22 PM CDT (5/13)
Length of Visible Light 15h 41m
Length of Day
14h 36m
Waxing Crescent, 12% of the Moon is Illuminated
May 13
Waxing Crescent
May 17
First Quarter
May 24
Full
May 31
Last Quarter
Jun 8
New

Hourly Weather History & Observations

Time (CDT) Temp. Dew Point Humidity Pressure Visibility Wind Dir Wind Speed Gust Speed Precip Events Conditions
12:15 AM 36.1 °F 29.8 °F 78% 30.10 in 10.0 mi Calm Calm - N/A   Clear
12:35 AM 35.1 °F 29.5 °F 80% 30.10 in 10.0 mi Calm Calm - N/A   Clear
12:55 AM 35.4 °F 29.5 °F 79% 30.10 in 10.0 mi Calm Calm - N/A   Clear
1:15 AM 37.6 °F 27.1 °F 66% 30.11 in 10.0 mi Calm Calm - N/A   Clear
1:35 AM 37.4 °F 27.3 °F 67% 30.12 in 10.0 mi Calm Calm - N/A   Clear
1:55 AM 38.7 °F 26.6 °F 62% 30.12 in 10.0 mi Calm Calm - N/A   Clear
2:15 AM 36.5 °F 28.0 °F 71% 30.12 in 10.0 mi Calm Calm - N/A   Clear
2:35 AM 37.4 °F 28.4 °F 70% 30.12 in 10.0 mi Calm Calm - N/A   Clear
2:55 AM 36.1 °F 29.3 °F 76% 30.12 in 10.0 mi Calm Calm - N/A   Clear
3:15 AM 35.8 °F 30.2 °F 80% 30.12 in 10.0 mi Calm Calm - N/A   Clear
3:35 AM 33.3 °F 31.3 °F 92% 30.12 in 10.0 mi Calm Calm - N/A   Clear
3:55 AM 32.5 °F 29.8 °F 90% 30.12 in 10.0 mi Calm Calm - N/A   Clear
4:15 AM 31.1 °F 29.3 °F 93% 30.12 in 10.0 mi Calm Calm - N/A   Clear
4:35 AM 32.0 °F 30.7 °F 95% 30.12 in 10.0 mi Calm Calm - N/A   Clear
4:55 AM 31.5 °F 30.2 °F 95% 30.13 in 10.0 mi Calm Calm - N/A   Clear
5:15 AM 30.7 °F 29.3 °F 94% 30.13 in 10.0 mi Calm Calm - N/A   Clear
5:35 AM 30.7 °F 29.8 °F 96% 30.13 in 10.0 mi Calm Calm - N/A   Clear
5:55 AM 30.7 °F 29.8 °F 96% 30.13 in 10.0 mi Calm Calm - N/A   Clear
6:15 AM 31.3 °F 30.4 °F 96% 30.14 in 10.0 mi Calm Calm - N/A   Clear
6:55 AM 34.0 °F 32.9 °F 96% 30.15 in 10.0 mi Calm Calm - N/A   Clear
7:15 AM 36.9 °F 35.8 °F 96% 30.16 in 10.0 mi Calm Calm - N/A   Clear
7:35 AM 40.5 °F 35.2 °F 82% 30.16 in 10.0 mi Calm Calm - N/A   Clear
7:55 AM 42.4 °F 35.1 °F 75% 30.16 in 10.0 mi Calm Calm - N/A   Clear
8:15 AM 44.8 °F 34.7 °F 68% 30.17 in 10.0 mi Calm Calm - N/A   Clear
8:35 AM 46.4 °F 33.6 °F 61% 30.17 in 10.0 mi Calm Calm - N/A   Clear
8:55 AM 48.4 °F 33.6 °F 57% 30.17 in 10.0 mi Calm Calm - N/A   Clear
9:15 AM 49.5 °F 31.6 °F 50% 30.17 in 10.0 mi Calm Calm - N/A   Clear
9:35 AM 51.1 °F 30.7 °F 46% 30.17 in 10.0 mi Calm Calm - N/A   Clear
9:55 AM 52.2 °F 28.8 °F 41% 30.17 in 10.0 mi Calm Calm - N/A   Clear
10:15 AM 53.4 °F 29.1 °F 39% 30.17 in 10.0 mi North 3.5 mph - N/A   Clear
10:35 AM 55.2 °F 23.9 °F 30% 30.17 in 10.0 mi WSW 6.9 mph - N/A   Clear
10:55 AM 56.3 °F 23.5 °F 28% 30.16 in 10.0 mi WNW 6.9 mph - N/A   Clear
11:15 AM 57.0 °F 21.7 °F 26% 30.16 in 10.0 mi Calm Calm - N/A   Clear
11:35 AM 57.9 °F 20.5 °F 23% 30.15 in 10.0 mi West 6.9 mph - N/A   Clear
11:55 AM 58.1 °F 20.8 °F 24% 30.14 in 10.0 mi WNW 4.6 mph 9.2 mph N/A   Clear
12:15 PM 59.2 °F 21.0 °F 23% 30.14 in 10.0 mi WNW 9.2 mph - N/A   Clear
12:35 PM 60.3 °F 21.2 °F 22% 30.13 in 10.0 mi WNW 8.1 mph - N/A   Clear
12:55 PM 61.0 °F 21.4 °F 22% 30.12 in 10.0 mi NW 9.2 mph 16.1 mph N/A   Clear
1:15 PM 61.7 °F 21.2 °F 21% 30.10 in 10.0 mi NW 8.1 mph - N/A   Clear
1:35 PM 61.5 °F 18.7 °F 19% 30.09 in 10.0 mi West 9.2 mph - N/A   Clear
1:55 PM 62.2 °F 18.7 °F 19% 30.09 in 10.0 mi West 4.6 mph - N/A   Clear
2:15 PM 63.3 °F 24.4 °F 23% 30.08 in 10.0 mi SSW 3.5 mph - N/A   Clear
2:35 PM 64.0 °F 21.2 °F 19% 30.07 in 10.0 mi South 3.5 mph - N/A   Clear
3:35 PM 65.1 °F 23.5 °F 21% 30.05 in 10.0 mi SSE 3.5 mph - N/A   Clear
3:55 PM 64.9 °F 21.9 °F 19% 30.04 in 10.0 mi SW 5.8 mph - N/A   Clear
4:15 PM 65.5 °F 24.1 °F 21% 30.03 in 10.0 mi SW 9.2 mph - N/A   Clear
4:35 PM 64.9 °F 25.2 °F 22% 30.03 in 10.0 mi SSW 12.7 mph 16.1 mph N/A   Clear
4:55 PM 64.0 °F 25.5 °F 23% 30.02 in 10.0 mi WSW 5.8 mph - N/A   Clear
5:15 PM 63.9 °F 23.5 °F 22% 30.02 in 10.0 mi SW 9.2 mph - N/A   Scattered Clouds
5:35 PM 63.9 °F 24.4 °F 22% 30.01 in 10.0 mi WSW 5.8 mph - N/A   Scattered Clouds
5:55 PM 63.3 °F 24.6 °F 23% 29.97 in 10.0 mi South 8.1 mph - N/A   Mostly Cloudy
6:35 PM 63.5 °F 23.9 °F 22% 29.99 in 10.0 mi SSW 6.9 mph - N/A   Scattered Clouds
7:15 PM 62.6 °F 26.4 °F 25% 29.99 in 10.0 mi SSW 6.9 mph - N/A   Overcast
7:35 PM 62.6 °F 26.6 °F 26% 29.98 in 10.0 mi South 9.2 mph - N/A   Overcast
7:55 PM 62.2 °F 27.5 °F 27% 29.98 in 10.0 mi SSW 6.9 mph - N/A   Overcast
8:15 PM 61.7 °F 28.9 °F 29% 29.99 in 10.0 mi South 4.6 mph - N/A   Overcast
8:35 PM 61.0 °F 30.4 °F 32% 29.99 in 10.0 mi South 4.6 mph - N/A   Mostly Cloudy
8:55 PM 61.0 °F 30.4 °F 32% 29.98 in 10.0 mi SSE 5.8 mph - N/A   Mostly Cloudy
9:15 PM 60.4 °F 30.4 °F 32% 29.97 in 10.0 mi SSE 8.1 mph - N/A   Mostly Cloudy
9:35 PM 60.3 °F 30.2 °F 32% 29.97 in 10.0 mi SSE 9.2 mph - N/A   Mostly Cloudy
9:55 PM 59.7 °F 30.6 °F 33% 29.96 in 10.0 mi SSE 8.1 mph - N/A   Scattered Clouds
10:15 PM 59.5 °F 30.4 °F 33% 29.95 in 10.0 mi SSE 9.2 mph - N/A   Scattered Clouds
10:35 PM 59.4 °F 30.7 °F 34% 29.93 in 10.0 mi South 8.1 mph - N/A   Scattered Clouds
10:55 PM 60.1 °F 30.4 °F 33% 29.92 in 10.0 mi SSE 10.4 mph - N/A   Mostly Cloudy
11:15 PM 59.4 °F 31.1 °F 34% 29.91 in 10.0 mi South 9.2 mph - N/A   Scattered Clouds
11:35 PM 60.4 °F 29.8 °F 31% 29.90 in 10.0 mi South 10.4 mph - N/A   Scattered Clouds
11:55 PM 60.3 °F 30.4 °F 32% 29.90 in 10.0 mi South 9.2 mph - N/A   Mostly Cloudy